Atlantic City, NJ

4:11 PM EDT on May 23, 2017 (GMT -0400)
Atlantic City International

Weather History for KACY - February, 2013

Change the Weather History Date:

Friday, February 8, 2013

  Actual Average Record
Temperature  
Mean Temperature 38 °F 34 °F  
Max Temperature 44 °F 43 °F 71 °F (2017)
Min Temperature 32 °F 26 °F -1 °F (1895)
Degree Days  
Heating Degree Days 27 31  
Month to date heating degree days 284 250  
Since 1 July heating degree days 2844 3011  
Cooling Degree Days 0 0  
Month to date cooling degree days 0 0  
Year to date cooling degree days 0 0  
Moisture  
Dew Point 36 °F    
Average Humidity 83    
Maximum Humidity 96    
Minimum Humidity 70    
Precipitation  
Precipitation 2.07 in 0.09 in 2.07 in (2013)
Month to date precipitation 2.24 0.77  
Year to date precipitation 4.54 3.99  
Snow  
Snow 0.40 in 0.20 in 8.30 in (1974)
Month to date snowfall 3.7 2.0  
Since 1 July snowfall 8.8 10.4  
Snow Depth 0.00 in    
Sea Level Pressure  
Sea Level Pressure 29.79 in    
Wind  
Wind Speed 16 mph (NNE)    
Max Wind Speed 28 mph    
Max Gust Speed 36 mph    
Visibility 6 miles    
Events Rain , Snow    
T = Trace of Precipitation, MM = Missing Value Source: NWS Daily Summary

Daily Weather History Graph

Daily Weather History Graph

Search for Another Location

Airport or City:

Trip Planner

Search our weather history database for the weather conditions in past years. The results will help you decide how hot, cold, wet, or windy it might be!

Date:

Astronomy

Feb. 08, 2013 Rise Set
Actual Time 6:58 AM EST 5:27 PM EST
Civil Twilight 6:30 AM EST 5:55 PM EST
Nautical Twilight 5:58 AM EST 6:26 PM EST
Astronomical Twilight 5:27 AM EST 6:58 PM EST
Moon 5:24 AM EST (2/8) 3:57 PM EST (2/8)
Length of Visible Light 11h 24m
Length of Day
10h 28m
Waning Crescent, 3% of the Moon is Illuminated
Feb 8
Waning Crescent
Feb 10
New
Feb 17
First Quarter
Feb 25
Full
Mar 4
Last Quarter

Hourly Weather History & Observations

Time (EST) Temp. Windchill Dew Point Humidity Pressure Visibility Wind Dir Wind Speed Gust Speed Precip Events Conditions
12:54 AM 39.9 °F 33.4 °F 32.0 °F 73% 30.23 in 10.0 mi East 10.4 mph - N/A   Mostly Cloudy
1:54 AM 41.0 °F 34.3 °F 33.1 °F 73% 30.19 in 10.0 mi East 11.5 mph - N/A   Overcast
2:38 AM 42.1 °F 35.7 °F 34.0 °F 73% 30.16 in 10.0 mi ENE 11.5 mph - N/A   Overcast
2:54 AM 42.1 °F 35.7 °F 34.0 °F 73% 30.15 in 10.0 mi ENE 11.5 mph - N/A   Overcast
3:54 AM 42.1 °F 36.1 °F 35.1 °F 76% 30.12 in 10.0 mi ENE 10.4 mph - 0.00 in Rain Light Rain
4:54 AM 42.1 °F 35.7 °F 39.0 °F 89% 30.08 in 9.0 mi East 11.5 mph - 0.04 in Rain Light Rain
5:21 AM 41.0 °F 34.3 °F 39.0 °F 93% 30.06 in 9.0 mi ENE 11.5 mph - 0.02 in Rain Light Rain
5:54 AM 43.0 °F 36.8 °F 39.9 °F 89% 30.04 in 9.0 mi ENE 11.5 mph - 0.06 in Rain Light Rain
6:54 AM 43.0 °F 35.4 °F 41.0 °F 93% 30.01 in 10.0 mi East 16.1 mph - 0.09 in Rain Light Rain
7:54 AM 44.1 °F 36.2 °F 42.1 °F 93% 29.98 in 5.0 mi ENE 18.4 mph 24.2 mph 0.06 in Rain Rain
8:26 AM 43.0 °F 34.8 °F 41.0 °F 93% 29.95 in 6.0 mi ENE 18.4 mph 24.2 mph 0.06 in Rain Rain
8:54 AM 44.1 °F 36.2 °F 42.1 °F 93% 29.93 in 7.0 mi ENE 18.4 mph - 0.10 in Rain Light Rain
9:38 AM 44.1 °F 37.1 °F 42.1 °F 93% 29.88 in 8.0 mi ENE 15.0 mph 24.2 mph 0.05 in Rain Light Rain
9:54 AM 44.1 °F 36.5 °F 42.1 °F 93% 29.87 in 8.0 mi NE 17.3 mph 26.5 mph 0.06 in Rain Light Rain
10:54 AM 43.0 °F 33.5 °F 41.0 °F 93% 29.81 in 7.0 mi NE 24.2 mph 34.5 mph 0.09 in Rain Light Rain
11:54 AM 43.0 °F 35.4 °F 41.0 °F 93% 29.74 in 3.0 mi NE 16.1 mph 29.9 mph 0.15 in Rain Rain
12:54 PM 43.0 °F 34.5 °F 39.9 °F 89% 29.67 in 3.0 mi NNE 19.6 mph 29.9 mph 0.29 in Rain Heavy Rain
1:06 PM 43.0 °F 35.4 °F 39.9 °F 89% 29.65 in 2.5 mi NNE 16.1 mph 27.6 mph 0.06 in Rain Heavy Rain
1:19 PM 42.1 °F 33.3 °F 39.9 °F 92% 29.65 in 4.0 mi NNE 19.6 mph 26.5 mph 0.13 in Rain Rain
1:54 PM 42.1 °F 33.9 °F 39.9 °F 92% 29.62 in 3.0 mi NNE 17.3 mph 27.6 mph 0.35 in Rain Heavy Rain
2:06 PM 42.1 °F 32.8 °F 39.0 °F 89% 29.61 in 2.5 mi NNE 21.9 mph 35.7 mph 0.08 in Rain Heavy Rain
2:20 PM 41.0 °F 31.9 °F 39.0 °F 93% 29.61 in 3.0 mi NNE 19.6 mph 29.9 mph 0.19 in Rain Heavy Rain
2:33 PM 41.0 °F 32.2 °F 37.9 °F 89% 29.61 in 2.5 mi NNE 18.4 mph 27.6 mph 0.28 in Rain Heavy Rain
2:42 PM 39.9 °F 30.5 °F 37.9 °F 93% 29.61 in 2.0 mi NNE 19.6 mph 26.5 mph 0.35 in Rain Heavy Rain
2:54 PM 39.9 °F 31.1 °F 37.9 °F 93% 29.60 in 2.5 mi North 17.3 mph 26.5 mph 0.43 in Rain Heavy Rain
3:05 PM 39.0 °F 29.6 °F 37.0 °F 93% 29.60 in 2.5 mi North 18.4 mph 27.6 mph 0.07 in Rain Heavy Rain
3:27 PM 39.0 °F 30.3 °F 37.0 °F 93% 29.61 in 4.0 mi North 16.1 mph 31.1 mph 0.15 in Rain Rain
3:54 PM 39.0 °F 29.3 °F 36.0 °F 89% 29.60 in 9.0 mi North 19.6 mph 26.5 mph 0.21 in Rain Light Rain
4:09 PM 39.0 °F 29.9 °F 36.0 °F 89% 29.58 in 8.0 mi NNE 17.3 mph 26.5 mph 0.03 in Rain Light Rain
4:28 PM 39.0 °F 29.6 °F 36.0 °F 89% 29.59 in 10.0 mi North 18.4 mph 26.5 mph 0.04 in Rain Light Rain
4:54 PM 37.9 °F 27.9 °F 36.0 °F 93% 29.60 in 10.0 mi North 19.6 mph 25.3 mph 0.05 in   Overcast
5:32 PM 37.0 °F 26.7 °F 34.0 °F 89% 29.60 in 10.0 mi NNW 19.6 mph - N/A   Overcast
5:54 PM 37.0 °F 27.0 °F 34.0 °F 89% 29.61 in 10.0 mi North 18.4 mph 24.2 mph N/A   Overcast
6:54 PM 36.0 °F 27.5 °F 33.1 °F 89% 29.65 in 10.0 mi NNW 12.7 mph 21.9 mph N/A   Overcast
7:54 PM 34.0 °F 24.2 °F 32.0 °F 92% 29.68 in 4.0 mi NW 15.0 mph - 0.01 in Rain Light Rain
8:39 PM 33.1 °F 23.0 °F 30.9 °F 92% 29.69 in 2.5 mi WNW 15.0 mph - 0.02 in Snow Light Snow
8:54 PM 33.1 °F 22.6 °F 30.0 °F 89% 29.70 in 2.0 mi WNW 16.1 mph - 0.03 in Snow Light Snow
9:21 PM 32.0 °F 20.8 °F 30.0 °F 92% 29.71 in 1.8 mi WNW 17.3 mph 26.5 mph 0.02 in Snow Light Snow
9:39 PM 32.0 °F 20.1 °F 30.0 °F 92% 29.71 in 1.2 mi NW 19.6 mph 25.3 mph 0.03 in Snow Light Snow
10:02 PM 32.0 °F 19.8 °F 30.0 °F 92% 29.72 in 1.8 mi NW 20.7 mph - 0.01 in Snow Light Snow
10:38 PM 32.0 °F 20.1 °F 30.0 °F 92% 29.73 in 2.0 mi NW 19.6 mph - 0.02 in Snow Light Snow
11:03 PM 32.0 °F 21.2 °F 30.0 °F 92% 29.72 in 3.0 mi NNW 16.1 mph - 0.00 in Snow Light Snow
11:23 PM 32.0 °F 20.8 °F 30.0 °F 92% 29.73 in 2.0 mi NNW 17.3 mph - 0.00 in Snow Light Snow
11:36 PM 32.0 °F 20.8 °F 30.0 °F 92% 29.74 in 4.0 mi NW 17.3 mph - 0.00 in Snow Light Snow
11:54 PM 32.0 °F 21.2 °F 30.0 °F 92% 29.75 in 6.0 mi NNW 16.1 mph - 0.00 in Snow Light Snow